[[[{"header":{"parameterUnit":"kt","parameterCategory":2,"dx":1,"dy":1,"la1":30.253999710083008,"la2":30.299108505249023,"lo1":-89.0895004272461,"lo2":-89.04439544677734,"nx":28,"ny":28,"refTime":"2022-09-22T21:00:00:Z","depth":0,"parameterNumber":1,"parameterNumberName":"U-component_of_WINDS"},"data":[3.3198,3.3392,3.3448,3.3696,3.3788,3.3967,3.405,3.4163,3.4268,3.4491,3.4629,3.4709,3.4838,3.502,3.5175,3.5207,3.5268,3.5294,3.5327,3.5157,3.5137,3.5118,3.5073,3.5307,3.5307,3.5494,3.5496,3.5497,3.3064,3.3156,3.3304,3.3485,3.3613,3.362,3.3767,3.3873,3.4035,3.4167,3.4307,3.4509,3.4678,3.4803,3.4975,3.5069,3.5083,3.5111,3.5104,3.5124,3.4945,3.4897,3.5096,3.5096,3.5096,3.5096,3.5096,3.5096,3.2833,3.2948,3.3089,3.3251,3.3358,3.348,3.3601,3.3694,3.3841,3.4026,3.4068,3.4254,3.4399,3.4638,3.4733,3.4881,3.4861,3.4911,3.4923,3.4933,3.4935,3.4651,3.4914,3.4914,3.4914,3.4913,3.4913,0,3.268,3.2719,3.2865,3.3028,3.315,3.3283,3.3415,3.3492,3.3598,3.3716,3.3893,3.4005,3.4227,3.4401,3.4578,3.4669,3.4691,3.4702,3.4736,3.4715,3.4672,3.4694,3.4395,3.4694,3.4692,3.4691,3.469,3.4689,3.2449,3.2577,3.2755,3.285,3.2936,3.309,3.3194,3.3278,3.3385,3.3562,3.3661,3.3837,3.3982,3.4259,3.4371,3.454,3.4552,3.4659,3.4578,3.4552,3.4551,3.4541,3.4553,3.4672,3.4674,3.4676,3.4677,0,3.2312,3.2404,3.2623,3.2787,3.2833,3.2964,3.3106,3.3227,3.3306,3.3483,3.353,3.3656,3.383,3.3926,3.4147,3.4192,3.4411,3.4421,3.436,3.4366,3.4469,3.4457,3.4793,3.4841,3.4603,3.4605,3.4607,0,3.2149,3.2317,3.2444,3.2566,3.2755,3.2834,3.3019,3.3106,3.3232,3.3373,3.3413,3.3545,3.3648,3.3794,3.3862,3.4059,3.4102,3.4147,3.4163,3.4142,3.4136,3.4201,3.4188,3.4197,3.4195,3.4193,3.4192,0,3.1923,3.219,3.2389,3.2465,3.2658,3.2751,3.2837,3.2979,3.3082,3.3231,3.3298,3.3468,3.3561,3.3692,3.3775,3.3716,3.4021,3.3957,3.4067,3.4065,3.4128,3.4123,3.4398,3.419,3.4189,3.4189,3.4188,0,3.1806,3.1951,3.2228,3.2388,3.2456,3.2589,3.2758,3.2894,3.3043,3.3092,3.3211,3.325,3.3432,3.3361,3.3614,3.3512,3.3602,3.3663,3.3673,3.3694,3.3611,3.375,3.4004,3.4033,3.3714,3.371,3.3706,0,3.152,3.1824,3.1893,3.2156,3.2309,3.234,3.2491,3.2621,3.27,3.2843,3.2932,3.3097,3.3065,3.3129,3.3242,3.3341,3.3473,3.3327,3.3534,3.3541,3.3489,3.3725,3.3737,3.3938,3.3657,3.3662,3.3666,0,3.131,3.1543,3.1585,3.1673,3.1857,3.1987,3.216,3.2339,3.243,3.2574,3.2721,3.2958,3.2942,3.305,3.3101,3.3213,3.3386,3.3183,3.3188,3.3214,3.3642,3.3652,3.3685,3.3396,3.3402,3.3407,3.3627,0,3.1105,3.127,3.1389,3.1585,3.1701,3.1872,3.1971,3.208,3.2114,3.2193,3.2414,3.2551,3.2737,3.2803,3.284,3.3067,3.3044,3.3027,3.2964,3.3119,3.3194,3.3225,3.2844,3.2842,3.2841,3.2841,0,0,3.0808,3.1046,3.1118,3.1287,3.1389,3.142,3.1593,3.1698,3.1907,3.1978,3.1943,3.2295,3.2409,3.2667,3.2723,3.2801,3.285,3.2793,3.3045,3.3068,3.3089,3.3167,3.3198,3.2839,3.2838,3.2838,3.2838,0,3.0752,3.0861,3.1031,3.1141,3.1305,3.138,3.1421,3.1591,3.1651,3.1868,3.1893,3.2039,3.2321,3.2436,3.2531,3.2764,3.2777,3.2815,3.2904,3.3032,3.3055,3.3076,3.3158,3.3186,3.2835,3.2836,3.2836,0,3.0561,3.0684,3.0776,3.1009,3.1118,3.1278,3.1234,3.1406,3.1525,3.1556,3.1771,3.1861,3.2026,3.2258,3.2366,3.2339,3.2703,3.2608,3.2618,3.2632,3.2761,3.2789,3.2814,3.2481,3.2479,3.2478,0,0,3.05,3.0654,3.0813,3.1005,3.1071,3.1186,3.1282,3.1326,3.147,3.1528,3.1644,3.1786,3.1951,3.2058,3.2218,3.2459,3.2499,3.256,3.2577,3.259,3.2611,3.2743,3.2772,3.2471,3.2471,3.2471,0,0,3.0472,3.0662,3.067,3.0905,3.1039,3.1211,3.1325,3.1341,3.1494,3.1486,3.1574,3.1616,3.1835,3.1924,3.1826,3.2198,3.2134,3.216,3.2131,3.2154,3.217,3.2144,3.1805,0,0,0,0,0,3.0465,3.0638,3.0643,3.0697,3.0994,3.1207,3.1246,3.1319,3.127,3.1359,3.1458,3.1466,3.1888,3.1804,3.1859,3.1967,3.2389,3.2404,3.2418,3.2438,3.246,3.2479,0,0,0,0,0,0,3.0487,3.0553,3.0639,3.0816,3.0884,3.1201,3.1135,3.116,3.1263,3.126,3.1446,3.1472,3.1541,3.1782,3.183,3.193,3.1789,3.2395,3.2407,3.2419,3.2446,3.2464,3.248,0,0,0,0,0,3.0505,3.0557,3.1014,3.0815,3.0873,3.1011,3.1129,3.115,3.1231,3.1386,3.1411,3.1276,3.1542,3.1588,3.1811,3.1907,3.1756,3.1774,3.2403,3.2413,3.2422,3.2455,0,0,0,0,0,0,3.0518,3.0579,3.1027,3.1048,3.0754,3.0995,3.1035,3.114,3.1351,3.1378,3.1219,3.1215,3.1545,3.158,3.1615,3.1894,3.1729,3.1747,3.1758,3.2411,3.2418,3.2425,0,0,0,0,0,0,3.0551,3.0596,3.1038,3.0958,3.097,3.098,3.1015,3.1217,3.1353,3.1173,3.1176,3.1215,3.1494,3.1575,3.1602,3.1914,3.1709,3.1726,3.1738,3.1745,3.2417,3.2423,0,0,0,0,0,0,3.0572,3.0611,3.0953,3.0962,3.0973,3.1211,3.116,3.1461,3.128,3.1164,3.1266,3.126,3.1489,3.1518,3.1594,3.1894,3.1909,3.171,3.1721,3.1729,3.1735,0,0,0,0,0,0,0,3.0588,3.0309,3.0904,3.0966,3.0975,3.1239,3.1245,3.1251,3.1278,3.1273,3.1267,3.1262,3.1611,3.163,3.1649,3.1877,0,0,3.1708,3.1716,0,0,0,0,0,0,0,0,3.0295,3.0306,3.0904,3.0909,3.0913,3.124,3.1245,3.125,3.1277,3.1273,3.1269,3.1264,3.1616,3.1631,3.1647,0,0,0,0,0,0,0,0,0,0,0,0,0,0,0,3.0905,3.0908,0,3.1241,3.1245,3.1249,3.1277,3.1273,3.127,3.1266,3.1621,3.1633,3.1646,0,0,0,0,0,0,0,0,0,0,0,0,0,0,0,0,0,0,0,0,0,0,0,0,0,0,0,0,0,0,0,0,0,0,0,0,0,0,0,0,0,0,0,0,0,0,0,0,0,0,0,0,0,0,0,0,0,0,0,0,0,0,0,0,0,0,0,0,0]}],[{"header":{"parameterUnit":"kt","parameterCategory":2,"dx":1,"dy":1,"la1":30.253999710083008,"la2":30.299108505249023,"lo1":-89.0895004272461,"lo2":-89.04439544677734,"nx":28,"ny":28,"refTime":"2022-09-22T21:00:00:Z","depth":0,"parameterNumber":2,"parameterNumberName":"V-component_of_WINDS"},"data":[5.2966,5.3051,5.304,5.3132,5.3139,5.3198,5.3217,5.3239,5.3256,5.3326,5.3365,5.3366,5.3378,5.3422,5.3464,5.3463,5.3478,5.3512,5.3504,5.3362,5.3341,5.3322,5.3297,5.3518,5.3518,5.3649,5.365,5.3651,5.2849,5.2856,5.2905,5.2944,5.2983,5.2943,5.2972,5.3007,5.3063,5.3086,5.3126,5.3188,5.3238,5.3241,5.3286,5.3323,5.3306,5.3335,5.3328,5.3329,5.3179,5.3154,5.3347,5.3347,5.3347,5.3347,5.3347,5.3347,5.2632,5.2686,5.2704,5.2756,5.2775,5.2802,5.2851,5.2851,5.2899,5.2947,5.293,5.2994,5.3016,5.307,5.3088,5.3136,5.3102,5.3131,5.3137,5.3142,5.3146,5.2941,5.3145,5.3145,5.3144,5.3144,5.3143,0,5.2468,5.2456,5.2504,5.2548,5.2587,5.2622,5.2652,5.2683,5.266,5.2702,5.276,5.2793,5.2858,5.2911,5.2955,5.2967,5.2928,5.2928,5.2946,5.2948,5.2943,5.2937,5.2683,5.2921,5.2919,5.2918,5.2917,5.2916,5.2239,5.2308,5.2327,5.2361,5.2377,5.2436,5.2468,5.2444,5.2479,5.2515,5.2564,5.262,5.2662,5.2761,5.2762,5.2811,5.2792,5.2882,5.2799,5.2798,5.2782,5.2774,5.2776,5.2896,5.2898,5.29,5.2902,0,5.2109,5.2097,5.2202,5.2216,5.2221,5.2294,5.2305,5.2361,5.2357,5.2432,5.2448,5.2443,5.2503,5.2491,5.256,5.2551,5.266,5.2646,5.2648,5.2641,5.2713,5.2703,5.2969,5.2998,5.278,5.2782,5.2784,0,5.1905,5.1999,5.1974,5.2036,5.2136,5.211,5.221,5.2217,5.2239,5.2298,5.2256,5.2312,5.2289,5.2343,5.2331,5.242,5.2437,5.2432,5.2426,5.2431,5.243,5.2445,5.243,5.2423,5.2422,5.2421,5.242,0,5.1695,5.1799,5.19,5.1921,5.1949,5.1997,5.2011,5.2037,5.2072,5.2116,5.2136,5.2192,5.222,5.2262,5.2244,5.2187,5.2357,5.2276,5.2351,5.2351,5.2385,5.2381,5.2625,5.2418,5.2418,5.2417,5.2417,0,5.1528,5.1574,5.1728,5.1746,5.1774,5.1845,5.1893,5.1952,5.1983,5.1979,5.2015,5.1984,5.207,5.1987,5.2101,5.203,5.2059,5.2065,5.2071,5.2071,5.1977,5.2105,5.2347,5.2367,5.2077,5.2075,5.2072,0,5.1284,5.144,5.1418,5.1567,5.1635,5.1578,5.1656,5.1687,5.1689,5.1746,5.1749,5.1818,5.1756,5.1774,5.1834,5.1838,5.1931,5.1827,5.1901,5.1903,5.1883,5.2108,5.2142,5.2297,5.2037,5.204,5.2043,0,5.1094,5.1131,5.116,5.118,5.1221,5.1282,5.1374,5.1436,5.1473,5.152,5.159,5.1693,5.1645,5.1681,5.1664,5.1726,5.1867,5.1669,5.1669,5.1696,5.2022,5.2051,5.2078,5.1841,5.1846,5.1849,5.2015,0,5.0822,5.0904,5.0985,5.1042,5.1089,5.1187,5.1175,5.1224,5.1201,5.1201,5.1313,5.1342,5.1408,5.1441,5.1422,5.1572,5.1543,5.1496,5.141,5.1561,5.1614,5.1637,5.133,5.1328,5.1326,5.1324,0,0,5.0587,5.0704,5.0682,5.0771,5.0808,5.075,5.0853,5.0885,5.0949,5.0974,5.0928,5.1075,5.1103,5.1238,5.1285,5.1317,5.1339,5.129,5.1492,5.151,5.1528,5.1585,5.1609,5.132,5.1319,5.1319,5.1318,0,5.0484,5.0516,5.0622,5.0651,5.0695,5.0692,5.0718,5.0752,5.0758,5.0873,5.0822,5.0889,5.1015,5.1044,5.1077,5.1275,5.1231,5.1298,5.1402,5.1471,5.1493,5.1512,5.1572,5.1596,5.1313,5.1313,5.1313,0,5.0287,5.0312,5.0364,5.0453,5.0483,5.0561,5.0468,5.0559,5.0614,5.055,5.0664,5.068,5.0724,5.086,5.0921,5.088,5.1131,5.1056,5.107,5.1074,5.114,5.1166,5.119,5.0882,5.088,5.0879,0,0,5.0199,5.0278,5.03,5.0431,5.0452,5.0452,5.0495,5.0477,5.0519,5.0536,5.0555,5.0597,5.0667,5.0715,5.0783,5.0936,5.0938,5.1003,5.1024,5.104,5.1054,5.1125,5.1151,5.0874,5.0873,5.0873,0,0,5.0157,5.0186,5.0156,5.0308,5.0348,5.0379,5.0458,5.0422,5.0483,5.047,5.0445,5.0456,5.0584,5.0603,5.0528,5.075,5.0667,5.0685,5.0732,5.0758,5.0778,5.0767,5.0437,0,0,0,0,0,5.0046,5.0182,5.0154,5.0178,5.0294,5.0394,5.0409,5.0391,5.0329,5.0391,5.0401,5.0356,5.0555,5.0488,5.0513,5.0595,5.0801,5.0814,5.0826,5.0922,5.0949,5.0972,0,0,0,0,0,0,5.0056,5.0086,5.015,5.0187,5.0213,5.039,5.028,5.0278,5.0322,5.0311,5.0355,5.0357,5.0344,5.0475,5.0497,5.0575,5.0429,5.0806,5.0817,5.0827,5.0932,5.0954,5.0972,0,0,0,0,0,5.0063,5.0087,5.0278,5.0185,5.0208,5.0216,5.0275,5.0273,5.0306,5.0324,5.0324,5.0288,5.0347,5.0365,5.0488,5.0566,5.0414,5.0422,5.0813,5.0822,5.0829,5.0942,0,0,0,0,0,0,5.0068,5.0086,5.0282,5.0288,5.0134,5.0205,5.0216,5.0268,5.0315,5.0317,5.0255,5.0246,5.0351,5.0364,5.0377,5.0563,5.0401,5.041,5.0415,5.082,5.0826,5.0832,0,0,0,0,0,0,5.0073,5.0091,5.0285,5.0221,5.022,5.0196,5.0206,5.031,5.0317,5.0244,5.0238,5.025,5.033,5.0364,5.0374,5.0539,5.0392,5.04,5.0405,5.0409,5.0825,5.083,0,0,0,0,0,0,5.008,5.0096,5.0219,5.0219,5.0217,5.0284,5.0288,5.0408,5.0261,5.0243,5.0248,5.0241,5.0332,5.0342,5.0372,5.0533,5.0537,5.0392,5.0397,5.0401,5.0404,0,0,0,0,0,0,0,5.0086,4.9984,5.0246,5.0216,5.0215,5.0344,5.0346,5.0348,5.026,5.0254,5.0249,5.0244,5.0345,5.0354,5.0363,5.0528,0,0,5.0391,5.0395,0,0,0,0,0,0,0,0,4.9976,4.9982,5.0246,5.0248,5.0249,5.0345,5.0346,5.0347,5.0259,5.0255,5.025,5.0246,5.0348,5.0355,5.0362,0,0,0,0,0,0,0,0,0,0,0,0,0,0,0,5.0247,5.0248,0,5.0345,5.0346,5.0347,5.0258,5.0255,5.0251,5.0248,5.035,5.0356,5.0362,0,0,0,0,0,0,0,0,0,0,0,0,0,0,0,0,0,0,0,0,0,0,0,0,0,0,0,0,0,0,0,0,0,0,0,0,0,0,0,0,0,0,0,0,0,0,0,0,0,0,0,0,0,0,0,0,0,0,0,0,0,0,0,0,0,0,0,0,0]}]]]